LEWISTON (LEW)

Elevation: 1870' · TRINITY R basin · Operator: US Bureau of Reclamation

Provisional data, subject to change.
Query executed Sunday at 4:56:14   clock

Select a sensor type for a plot of data.
Note: Reservoir Flows are daily averages.

Earlier

Date RES ELE    STORAGE    RES CHG    OUTFLOW    INFLOW    EVAP    RIV REL    SPILL    DIS PWR   
 FEET   AF   AF   CFS   CFS   CFS   CFS   CFS   CFS  
08/23/2014 1901.49 14278 -239 3038 2924 6 788 672 0
08/24/2014 1901.49 14278 0 2640 2646 6 998 882 0
08/25/2014 1900.92 13852 -426 3401 3192 6 1650 1534 0
08/26/2014 1901.62 14375 523 3302 3572 6 2501 2365 0
08/27/2014 1900.63 13639 -736 2695 2330 6 1944 1789 0
08/28/2014 1901.04 13941 302 2229 2388 7 1415 1260 0
08/29/2014 1901.06 13956 15 1820 1834 6 981 826 0
08/30/2014 1901.31 14143 187 967 1068 7 953 798 0
08/31/2014 1901.58 14345 202 972 1081 7 958 803 0
09/01/2014 1900.96 13882 -463 1634 1405 4 956 801 0
09/02/2014 1900.84 13793 -89 1274 1236 7 951 796 0
09/03/2014 1900.96 13882 89 1248 1300 7 953 798 0
09/04/2014 1901.74 14465 583 1128 1429 7 961 806 0
09/05/2014 1901.34 14165 -300 1248 1104 7 968 813 0
09/06/2014 1901.39 14203 38 1232 1256 5 962 807 0
09/07/2014 1901.59 14352 149 1078 1160 7 965 810 0
09/08/2014 1900.74 13720 -632 1394 1082 7 964 809 0
09/09/2014 1900.52 13558 -162 1328 1251 5 952 797 0
09/10/2014 1901.23 14083 525 1449 1719 5 960 805 0
09/11/2014 1900.70 13690 -393 1309 1114 3 955 800 0
09/12/2014 1901.04 13941 251 1507 1641 7 954 799 0
09/13/2014 1900.81 13771 -170 1372 1292 6 694 539 0
09/14/2014 1901.32 14150 379 668 864 5 475 320 0
09/15/2014 1901.25 14098 -52 741 720 5 451 296 0
09/16/2014 1901.90 14584 486 1225 1476 6 1002 847 0
09/17/2014 1901.54 14315 -269 3500 3370 6 3202 3047 0
09/18/2014 1901.06 13956 -359 3624 3448 5 3437 3282 0
09/19/2014 1900.62 13631 -325 3586 3424 2 3435 3280 0
09/20/2014 1901.67 14412 -- 3690 4088 4 3439 3284 0
09/21/2014 -- -- -- -- -- -- -- -- --

Later | Latest

Warning! This data is preliminary and subject to revision.

Download Data Now Download Data Now | Show LEW Map | Plot LEW Data | 1 Month LEW Data | Real-Time LEW Data | LEW Info